| time (UTC) | temp C | wind direction | speed KPH | gust KPH | rain 1hr cm | rain 24hr cm | rain mn cm | humidity % | barometer mb |
| 20260504194717 | 23 | 192 | 11.3 | 22.5 | 0.00 | 0.00 | 0.00 | 34 | 1008.7 |
| 20260504194300 | 23 | 224 | 8.0 | 29.0 | 0.00 | 0.00 | 0.00 | 34 | 1008.7 |
| 20260504193756 | 23 | 200 | 6.4 | 32.2 | 0.00 | 0.00 | 0.00 | 37 | 1008.8 |
| 20260504193241 | 23 | 184 | 19.3 | 32.2 | 0.00 | 0.00 | 0.00 | 34 | 1008.9 |
| 20260504192734 | 23 | 205 | 20.9 | 25.7 | 0.00 | 0.00 | 0.00 | 35 | 1008.8 |
| 20260504192242 | 23 | 204 | 12.9 | 25.7 | 0.00 | 0.00 | 0.00 | 36 | 1009.0 |
| 20260504191736 | 23 | 211 | 9.7 | 37.0 | 0.00 | 0.00 | 0.00 | 35 | 1009.1 |
| 20260504191224 | 23 | 286 | 20.9 | 37.0 | 0.00 | 0.00 | 0.00 | 34 | 1009.1 |
| 20260504190739 | 23 | 184 | 14.5 | 33.8 | 0.00 | 0.00 | 0.00 | 37 | 1009.1 |
| 20260504190229 | 23 | 207 | 12.9 | 33.8 | 0.00 | 0.00 | 0.00 | 35 | 1009.3 |
| 20260504185743 | 23 | 194 | 16.1 | 22.5 | 0.00 | 0.00 | 0.00 | 36 | 1009.4 |
| 20260504185233 | 23 | 249 | 14.5 | 22.5 | 0.00 | 0.00 | 0.00 | 35 | 1009.3 |
| 20260504184722 | 23 | 215 | 9.7 | 33.8 | 0.00 | 0.00 | 0.00 | 35 | 1009.5 |
| 20260504184300 | 23 | 163 | 9.7 | 33.8 | 0.00 | 0.00 | 0.00 | 37 | 1009.5 |
| 20260504183732 | 23 | 235 | 11.3 | 25.7 | 0.00 | 0.00 | 0.00 | 36 | 1009.7 |
| 20260504183241 | 23 | 132 | 8.0 | 29.0 | 0.00 | 0.00 | 0.00 | 37 | 1009.6 |
| 20260504182730 | 23 | 253 | 8.0 | 29.0 | 0.00 | 0.00 | 0.00 | 36 | 1009.8 |
| 20260504182242 | 22 | 225 | 14.5 | 22.5 | 0.00 | 0.00 | 0.00 | 37 | 1009.8 |
| 20260504181739 | 22 | 146 | 8.0 | 22.5 | 0.00 | 0.00 | 0.00 | 36 | 1009.8 |
| 20260504181227 | 22 | 212 | 14.5 | 24.1 | 0.00 | 0.00 | 0.00 | 39 | 1009.9 |
| 20260504180719 | 22 | 198 | 16.1 | 24.1 | 0.00 | 0.00 | 0.00 | 37 | 1009.9 |
| 20260504180234 | 22 | 269 | 9.7 | 19.3 | 0.00 | 0.00 | 0.00 | 39 | 1010.0 |
| 20260504175723 | 22 | 189 | 11.3 | 24.1 | 0.00 | 0.00 | 0.00 | 40 | 1010.1 |
| 20260504175236 | 22 | 156 | 12.9 | 24.1 | 0.00 | 0.00 | 0.00 | 40 | 1010.2 |
| 20260504174724 | 22 | 175 | 14.5 | 29.0 | 0.00 | 0.00 | 0.00 | 39 | 1010.2 |
| 20260504174256 | 22 | 187 | 22.5 | 29.0 | 0.00 | 0.00 | 0.00 | 39 | 1010.3 |
| 20260504173727 | 22 | 139 | 11.3 | 30.6 | 0.00 | 0.00 | 0.00 | 40 | 1010.2 |
| 20260504173238 | 22 | 133 | 8.0 | 30.6 | 0.00 | 0.00 | 0.00 | 39 | 1010.3 |
| 20260504172731 | 22 | 244 | 4.8 | 22.5 | 0.00 | 0.00 | 0.00 | 39 | 1010.4 |
| 20260504172239 | 22 | 204 | 12.9 | 22.5 | 0.00 | 0.00 | 0.00 | 39 | 1010.4 |
| 20260504171736 | 22 | 221 | 11.3 | 22.5 | 0.00 | 0.00 | 0.00 | 40 | 1010.5 |
| 20260504171222 | 21 | 157 | 11.3 | 19.3 | 0.00 | 0.00 | 0.00 | 44 | 1010.5 |
| 20260504170738 | 21 | 315 | 9.7 | 19.3 | 0.00 | 0.00 | 0.00 | 42 | 1010.7 |
| 20260504170231 | 21 | 229 | 4.8 | 19.3 | 0.00 | 0.00 | 0.00 | 41 | 1010.7 |
| 20260504160240 | 20 | 202 | 12.9 | 25.7 | 0.00 | 0.00 | 0.00 | 43 | 1011.8 |
| 20260504150738 | 18 | 250 | 9.7 | 16.1 | 0.00 | 0.00 | 0.00 | 51 | 1012.2 |
| 20260504150227 | 18 | 188 | 11.3 | 17.7 | 0.00 | 0.00 | 0.00 | 54 | 1012.2 |
| 20260504141235 | 16 | 309 | 6.4 | 29.0 | 0.00 | 0.00 | 0.00 | 56 | 1012.3 |
| 20260504140726 | 16 | 223 | 9.7 | 29.0 | 0.00 | 0.00 | 0.00 | 54 | 1012.4 |
| 20260504140243 | 16 | 200 | 12.9 | 20.9 | 0.00 | 0.00 | 0.00 | 53 | 1012.4 |
| 20260504130735 | 15 | 236 | 9.7 | 30.6 | 0.00 | 0.00 | 0.00 | 58 | 1012.9 |
| 20260504130242 | 15 | 201 | 16.1 | 29.0 | 0.00 | 0.00 | 0.00 | 58 | 1013.1 |
| 20260504120232 | 12 | 203 | 9.7 | 20.9 | 0.00 | 0.00 | 0.00 | 70 | 1013.2 |
| 20260504110220 | 10 | 229 | 9.7 | 25.7 | 0.00 | 0.00 | 0.00 | 74 | 1013.6 |
| 20260504100225 | 8 | 185 | 9.7 | 17.7 | 0.00 | 0.00 | 0.00 | 71 | 1013.5 |
| 20260504081730 | 5 | 181 | 0.0 | 0.0 | 0.00 | 0.00 | 0.00 | 77 | 1013.3 |
| 20260504081222 | 5 | 181 | 0.0 | 0.0 | 0.00 | 0.00 | 0.00 | 76 | 1013.2 |
| 20260504080718 | 6 | 181 | 0.0 | 0.0 | 0.00 | 0.00 | 0.00 | 76 | 1013.3 |
| 20260504080236 | 6 | 181 | 0.0 | 0.0 | 0.00 | 0.00 | 0.00 | 75 | 1013.3 |
| 20260504070240 | 6 | 181 | 0.0 | 0.0 | 0.00 | 0.00 | 0.00 | 72 | 1013.0 |
| 20260504060242 | 7 | 181 | 0.0 | 0.0 | 0.00 | 0.00 | 0.00 | 69 | 1013.1 |
| 20260504050728 | 8 | 181 | 0.0 | 3.2 | 0.00 | 0.00 | 0.00 | 64 | 1012.8 |
| 20260504050244 | 8 | 181 | 0.0 | 3.2 | 0.00 | 0.00 | 0.00 | 63 | 1012.9 |
| 20260504045734 | 9 | 181 | 0.0 | 6.4 | 0.00 | 0.00 | 0.00 | 63 | 1012.9 |
| 20260504045223 | 9 | 181 | 1.6 | 6.4 | 0.00 | 0.00 | 0.00 | 62 | 1012.9 |
| 20260504044738 | 9 | 275 | 0.0 | 4.8 | 0.00 | 0.00 | 0.00 | 62 | 1012.8 |
| 20260504044233 | 9 | 171 | 0.0 | 3.2 | 0.00 | 0.00 | 0.00 | 60 | 1012.8 |
| 20260504043721 | 10 | 171 | 0.0 | 4.8 | 0.00 | 0.00 | 0.00 | 60 | 1012.7 |
| 20260504043236 | 10 | 171 | 0.0 | 6.4 | 0.00 | 0.00 | 0.00 | 59 | 1012.6 |
| 20260504042726 | 10 | 171 | 0.0 | 6.4 | 0.00 | 0.00 | 0.00 | 59 | 1012.6 |
| 20260504042219 | 10 | 172 | 0.0 | 8.0 | 0.00 | 0.00 | 0.00 | 58 | 1012.6 |
| 20260504041736 | 10 | 173 | 4.8 | 8.0 | 0.00 | 0.00 | 0.00 | 57 | 1012.5 |
| 20260504041221 | 10 | 188 | 0.0 | 3.2 | 0.00 | 0.00 | 0.00 | 57 | 1012.5 |
| 20260504040757 | 10 | 188 | 1.6 | 3.2 | 0.00 | 0.00 | 0.00 | 56 | 1012.4 |
| 20260504040227 | 10 | 188 | 0.0 | 3.2 | 0.00 | 0.00 | 0.00 | 55 | 1012.4 |
| 20260504035739 | 10 | 188 | 0.0 | 6.4 | 0.00 | 0.00 | 0.00 | 54 | 1012.3 |
| 20260504035230 | 11 | 188 | 0.0 | 6.4 | 0.00 | 0.00 | 0.00 | 54 | 1012.3 |
| 20260504034722 | 11 | 218 | 1.6 | 8.0 | 0.00 | 0.00 | 0.00 | 54 | 1012.2 |
| 20260504034239 | 11 | 218 | 4.8 | 8.0 | 0.00 | 0.00 | 0.00 | 54 | 1012.3 |
| 20260504033733 | 11 | 181 | 3.2 | 8.0 | 0.00 | 0.00 | 0.00 | 53 | 1012.2 |
| 20260504033221 | 11 | 221 | 3.2 | 8.0 | 0.00 | 0.00 | 0.00 | 53 | 1012.2 |
| 20260504032736 | 11 | 160 | 0.0 | 8.0 | 0.00 | 0.00 | 0.00 | 53 | 1012.2 |
| 20260504032244 | 11 | 160 | 1.6 | 8.0 | 0.00 | 0.00 | 0.00 | 52 | 1012.1 |
| 20260504031733 | 11 | 246 | 0.0 | 8.0 | 0.00 | 0.00 | 0.00 | 52 | 1012.2 |
| 20260504031254 | 11 | 227 | 0.0 | 9.7 | 0.00 | 0.00 | 0.00 | 52 | 1012.1 |
| 20260504030720 | 11 | 195 | 1.6 | 9.7 | 0.00 | 0.00 | 0.00 | 51 | 1012.1 |
| 20260504030236 | 11 | 203 | 1.6 | 16.1 | 0.00 | 0.00 | 0.00 | 52 | 1012.1 |
| 20260504025751 | 11 | 200 | 9.7 | 16.1 | 0.00 | 0.00 | 0.00 | 52 | 1012.1 |
| 20260504025244 | 11 | 197 | 3.2 | 8.0 | 0.00 | 0.00 | 0.00 | 51 | 1012.2 |
| 20260504024735 | 11 | 214 | 4.8 | 9.7 | 0.00 | 0.00 | 0.00 | 52 | 1012.0 |
| 20260504024223 | 11 | 213 | 0.0 | 9.7 | 0.00 | 0.00 | 0.00 | 52 | 1012.1 |
| 20260504023720 | 11 | 194 | 0.0 | 8.0 | 0.00 | 0.00 | 0.00 | 52 | 1012.1 |
| 20260504023304 | 11 | 209 | 3.2 | 8.0 | 0.00 | 0.00 | 0.00 | 53 | 1012.1 |
| 20260504022734 | 11 | 189 | 3.2 | 6.4 | 0.00 | 0.00 | 0.00 | 53 | 1012.2 |
| 20260504022224 | 11 | 189 | 0.0 | 6.4 | 0.00 | 0.00 | 0.00 | 52 | 1012.1 |
| 20260504021754 | 11 | 189 | 0.0 | 6.4 | 0.00 | 0.00 | 0.00 | 52 | 1012.1 |
| 20260504021223 | 11 | 222 | 0.0 | 8.0 | 0.00 | 0.00 | 0.00 | 52 | 1012.0 |
| 20260504020739 | 11 | 185 | 1.6 | 8.0 | 0.00 | 0.00 | 0.00 | 51 | 1011.9 |
| 20260504020229 | 11 | 185 | 0.0 | 3.2 | 0.00 | 0.00 | 0.00 | 50 | 1011.9 |
| 20260504015742 | 11 | 185 | 0.0 | 3.2 | 0.00 | 0.00 | 0.00 | 50 | 1012.0 |
| 20260504015250 | 11 | 185 | 1.6 | 8.0 | 0.00 | 0.00 | 0.00 | 50 | 1011.9 |
| 20260504014804 | 11 | 185 | 3.2 | 8.0 | 0.00 | 0.00 | 0.00 | 49 | 1011.9 |
| 20260504014235 | 11 | 185 | 4.8 | 6.4 | 0.00 | 0.00 | 0.00 | 48 | 1011.9 |
| 20260504013744 | 12 | 196 | 0.0 | 3.2 | 0.00 | 0.00 | 0.00 | 48 | 1011.8 |
| 20260504013240 | 12 | 196 | 0.0 | 4.8 | 0.00 | 0.00 | 0.00 | 47 | 1011.8 |
| 20260504012735 | 12 | 187 | 0.0 | 4.8 | 0.00 | 0.00 | 0.00 | 47 | 1011.8 |
| 20260504012225 | 12 | 187 | 0.0 | 1.6 | 0.00 | 0.00 | 0.00 | 46 | 1011.7 |
| 20260504011739 | 12 | 187 | 0.0 | 1.6 | 0.00 | 0.00 | 0.00 | 45 | 1011.6 |
| 20260504011235 | 12 | 187 | 0.0 | 3.2 | 0.00 | 0.00 | 0.00 | 46 | 1011.6 |
| 20260504010727 | 13 | 187 | 1.6 | 3.2 | 0.00 | 0.00 | 0.00 | 44 | 1011.5 |
| 20260504010222 | 13 | 219 | 0.0 | 3.2 | 0.00 | 0.00 | 0.00 | 43 | 1011.4 |
| 20260504005737 | 13 | 219 | 0.0 | 6.4 | 0.00 | 0.00 | 0.00 | 43 | 1011.3 |
| 20260504005225 | 13 | 219 | 0.0 | 6.4 | 0.00 | 0.00 | 0.00 | 43 | 1011.3 |
| 20260504004740 | 13 | 197 | 0.0 | 1.6 | 0.00 | 0.00 | 0.00 | 42 | 1011.2 |
| 20260504004227 | 13 | 197 | 0.0 | 9.7 | 0.00 | 0.00 | 0.00 | 41 | 1011.1 |
| 20260504003741 | 13 | 197 | 1.6 | 9.7 | 0.00 | 0.00 | 0.00 | 41 | 1011.1 |
| 20260504003233 | 14 | 239 | 1.6 | 8.0 | 0.00 | 0.00 | 0.00 | 40 | 1011.1 |
| 20260504002742 | 14 | 254 | 1.6 | 14.5 | 0.00 | 0.00 | 0.00 | 40 | 1011.0 |
| 20260504002234 | 14 | 231 | 6.4 | 14.5 | 0.00 | 0.00 | 0.00 | 39 | 1011.0 |
| 20260504001724 | 14 | 270 | 3.2 | 9.7 | 0.00 | 0.00 | 0.00 | 39 | 1010.8 |
| 20260504001258 | 14 | 208 | 1.6 | 14.5 | 0.00 | 0.00 | 0.00 | 40 | 1010.8 |
| 20260504000746 | 15 | 252 | 3.2 | 14.5 | 0.00 | 0.00 | 0.00 | 38 | 1010.7 |
| 20260504000241 | 15 | 257 | 4.8 | 11.3 | 0.00 | 0.00 | 0.00 | 37 | 1010.7 |
| 20260503235731 | 15 | 192 | 3.2 | 11.3 | 0.00 | 0.00 | 0.00 | 37 | 1010.7 |
| 20260503235245 | 15 | 270 | 3.2 | 12.9 | 0.00 | 0.00 | 0.00 | 37 | 1010.6 |
| 20260503234735 | 15 | 250 | 3.2 | 14.5 | 0.00 | 0.00 | 0.00 | 38 | 1010.6 |
| 20260503234244 | 15 | 281 | 4.8 | 14.5 | 0.00 | 0.00 | 0.00 | 36 | 1010.5 |
| 20260503233734 | 15 | 284 | 3.2 | 14.5 | 0.00 | 0.00 | 0.00 | 36 | 1010.5 |
| 20260503233253 | 15 | 259 | 11.3 | 16.1 | 0.00 | 0.00 | 0.00 | 35 | 1010.5 |
| 20260503232742 | 15 | 300 | 11.3 | 16.1 | 0.00 | 0.00 | 0.00 | 35 | 1010.4 |
| 20260503232233 | 16 | 212 | 9.7 | 19.3 | 0.00 | 0.00 | 0.00 | 35 | 1010.4 |
| 20260503231723 | 16 | 299 | 9.7 | 16.1 | 0.00 | 0.00 | 0.00 | 34 | 1010.4 |
| 20260503231240 | 16 | 276 | 6.4 | 17.7 | 0.00 | 0.00 | 0.00 | 34 | 1010.3 |
| 20260503230748 | 16 | 285 | 8.0 | 17.7 | 0.00 | 0.00 | 0.00 | 34 | 1010.3 |
| 20260503230220 | 16 | 263 | 1.6 | 14.5 | 0.00 | 0.00 | 0.00 | 35 | 1010.3 |
| 20260503225756 | 16 | 311 | 3.2 | 14.5 | 0.00 | 0.00 | 0.00 | 33 | 1010.2 |
| 20260503225222 | 16 | 275 | 6.4 | 19.3 | 0.00 | 0.00 | 0.00 | 34 | 1010.2 |
| 20260503224736 | 16 | 261 | 8.0 | 19.3 | 0.00 | 0.00 | 0.00 | 33 | 1010.2 |
| 20260503224228 | 16 | 314 | 8.0 | 25.7 | 0.00 | 0.00 | 0.00 | 32 | 1010.2 |
| 20260503223741 | 16 | 207 | 14.5 | 25.7 | 0.00 | 0.00 | 0.00 | 33 | 1010.1 |
| 20260503223232 | 16 | 267 | 9.7 | 19.3 | 0.00 | 0.00 | 0.00 | 33 | 1010.1 |
| 20260503222742 | 16 | 277 | 6.4 | 19.3 | 0.00 | 0.00 | 0.00 | 32 | 1010.0 |
| 20260503222233 | 16 | 275 | 6.4 | 17.7 | 0.00 | 0.00 | 0.00 | 34 | 1010.0 |
| 20260503221742 | 16 | 273 | 6.4 | 19.3 | 0.00 | 0.00 | 0.00 | 35 | 1010.1 |
| 20260503221235 | 16 | 271 | 11.3 | 20.9 | 0.00 | 0.00 | 0.00 | 32 | 1010.1 |
| 20260503220723 | 16 | 292 | 11.3 | 20.9 | 0.00 | 0.00 | 0.00 | 33 | 1010.2 |
| 20260503220238 | 16 | 30 | 3.2 | 22.5 | 0.00 | 0.00 | 0.00 | 33 | 1010.1 |
| 20260503215731 | 16 | 287 | 11.3 | 29.0 | 0.00 | 0.00 | 0.00 | 34 | 1010.2 |
| 20260503215222 | 16 | 273 | 11.3 | 29.0 | 0.00 | 0.00 | 0.00 | 34 | 1010.3 |
| 20260503214734 | 16 | 331 | 3.2 | 29.0 | 0.00 | 0.00 | 0.00 | 35 | 1010.2 |
| 20260503214222 | 16 | 246 | 14.5 | 29.0 | 0.00 | 0.00 | 0.00 | 33 | 1010.3 |
| 20260503213738 | 16 | 271 | 8.0 | 24.1 | 0.00 | 0.00 | 0.00 | 33 | 1010.1 |
| 20260503213231 | 16 | 302 | 11.3 | 30.6 | 0.00 | 0.00 | 0.00 | 33 | 1010.2 |
| 20260503212722 | 16 | 330 | 16.1 | 30.6 | 0.00 | 0.00 | 0.00 | 35 | 1010.1 |
| 20260503212239 | 16 | 190 | 12.9 | 22.5 | 0.00 | 0.00 | 0.00 | 35 | 1010.1 |
| 20260503211729 | 16 | 273 | 11.3 | 32.2 | 0.00 | 0.00 | 0.00 | 34 | 1010.1 |
| 20260503211241 | 16 | 273 | 11.3 | 32.2 | 0.00 | 0.00 | 0.00 | 35 | 1010.2 |
| 20260503210734 | 16 | 5 | 6.4 | 24.1 | 0.00 | 0.00 | 0.00 | 35 | 1010.2 |
| 20260503210244 | 16 | 281 | 16.1 | 29.0 | 0.00 | 0.00 | 0.00 | 34 | 1010.2 |
| 20260503205736 | 16 | 337 | 16.1 | 32.2 | 0.00 | 0.00 | 0.00 | 33 | 1010.3 |
| 20260503205223 | 16 | 242 | 14.5 | 32.2 | 0.00 | 0.00 | 0.00 | 34 | 1010.3 |
| 20260503204739 | 16 | 250 | 17.7 | 24.1 | 0.00 | 0.00 | 0.00 | 33 | 1010.3 |
| 20260503204227 | 16 | 301 | 9.7 | 24.1 | 0.00 | 0.00 | 0.00 | 34 | 1010.4 |
| 20260503203741 | 16 | 297 | 4.8 | 25.7 | 0.00 | 0.00 | 0.00 | 35 | 1010.3 |
| 20260503203229 | 16 | 259 | 12.9 | 25.7 | 0.00 | 0.00 | 0.00 | 34 | 1010.3 |
| 20260503202804 | 16 | 288 | 6.4 | 19.3 | 0.00 | 0.00 | 0.00 | 36 | 1010.3 |
| 20260503202253 | 16 | 299 | 9.7 | 19.3 | 0.00 | 0.00 | 0.00 | 36 | 1010.4 |
| 20260503201743 | 15 | 286 | 12.9 | 19.3 | 0.00 | 0.00 | 0.00 | 36 | 1010.3 |
| 20260503201235 | 15 | 291 | 8.0 | 16.1 | 0.00 | 0.00 | 0.00 | 36 | 1010.2 |
| 20260503200743 | 15 | 44 | 6.4 | 24.1 | 0.00 | 0.00 | 0.00 | 37 | 1010.3 |
| 20260503200236 | 15 | 194 | 12.9 | 25.7 | 0.00 | 0.00 | 0.00 | 35 | 1010.4 |
| 20260503195745 | 15 | 273 | 12.9 | 30.6 | 0.00 | 0.00 | 0.00 | 36 | 1010.4 |
| 20260503195240 | 15 | 299 | 9.7 | 30.6 | 0.00 | 0.00 | 0.00 | 35 | 1010.4 |